Regional Weather Roundup
Issued by NWS

Home | Current Version | Previous Version | Graphics & Text | Print | Product List | Glossary On
Versions: 1 2 3 4 5 6 7 8 9 10 11 12 13 14 15 16 17 18 19 20 21 22 23 24 25 26 27 28 29 30 31 32 33 34 35 36 37 38 39 40 41 42 43 44 45 46 47 48 49 50
000
ASUS43 KLOT 301600
RWRIL

ILLINOIS REGIONAL WEATHER ROUNDUP
NATIONAL WEATHER SERVICE CHICAGO/ROMEOVILLE IL
1100 AM CDT THU OCT 30 2014

NOTE: "FAIR" INDICATES FEW OR NO CLOUDS BELOW 12,000 FEET WITH NO
SIGNIFICANT WEATHER AND/OR OBSTRUCTIONS TO VISIBILITY.

* THESE STATIONS ARE NOT UNDER NWS QUALITY CONTROL. THEY ALSO MAY NOT
  REPORT WEATHER SUCH AS PRECIPITATION OR FOG.

ILZ001-002-007-009-015-016-024-301700-
NORTHWEST ILLINOIS

CITY           SKY/WX    TMP DP  RH WIND       PRES   REMARKS
MOLINE         CLOUDY    46  36  68 CALM      30.11S
STERLING*      CLOUDY    46  36  66 W6        30.13S
$$

ILZ003-004-008-010-011-017-018-301700-
NORTH CENTRAL ILLINOIS

CITY           SKY/WX    TMP DP  RH WIND       PRES   REMARKS
ROCKFORD       CLOUDY    43  35  73 S5        30.13S
$$

ILZ005-006-012>014-019>023-301700-
NORTHEAST ILLINOIS

CITY           SKY/WX    TMP DP  RH WIND       PRES   REMARKS
CHICAGO-OHARE  PTSUNNY   47  34  60 SW9       30.12F
CHICAGO-MIDWAY PTSUNNY   48  35  60 SW10      30.13F
AURORA         MOSUNNY   48  36  63 SW10      30.13S
WAUKEGAN       PTSUNNY   45  33  63 SW10      30.11F
DUPAGE AIRPORT MOSUNNY   48  35  60 S8        30.12S
WHEELING       PTSUNNY   47  34  60 SW7       30.13F
NORTHERLY ISL    N/A     47  32  56 SW9         N/A
$$

LMZ740>746-301700-
SOUTHERN LAKE MICHIGAN

STATION/POSITION SKY/WX   TEMP    WIND        PRES    VSBY  WAVE
                          AIR SEA DIR/SP/G                  HT/PER
                          (F)     (DEG/KT/KT) (MB)    (MI)  (FT/S)
SOUTHERN BUOY              48 53  230/ 12/ 16 1020.3S         1/ 5
WAUKEGAN HARBOR            45     220/  9/ 10   N/A
HARRISON CRIB              45     200/ 11/ 14   N/A
BURNHAM HARBOR             47     200/  8       N/A
CALUMET HARBOR             45     200/  8/ 10 1019.1F
MICHIGAN CITY              46     190/ 10/ 12   N/A
$$

ILZ025>027-034>036-040-047-049-050-058-095>099-301700-
WEST-CENTRAL ILLINOIS

CITY           SKY/WX    TMP DP  RH WIND       PRES   REMARKS
QUINCY         CLOUDY    48  39  71 S10       30.07S
$$

ILZ028>032-037-038-041>044-048-051>054-059>061-301700-
CENTRAL ILLINOIS

CITY           SKY/WX    TMP DP  RH WIND       PRES   REMARKS
DECATUR        MOSUNNY   50  39  66 S9        30.15F
PEORIA         CLOUDY    47  38  71 S7        30.12F
SPRINGFIELD    MOSUNNY   52  39  61 S13       30.14S
TAYLORVILLE    NOT AVBL
$$

ILZ033-039-045-046-055>057-062-063-301700-
EAST-CENTRAL ILLINOIS

CITY           SKY/WX    TMP DP  RH WIND       PRES   REMARKS
CHAMPAIGN      SUNNY     50  35  56 S10       30.15S
MATTOON        MOSUNNY   48  35  60 S8        30.15S
$$

ILZ079-100>102-301700-
SOUTHWEST ILLINOIS

CITY           SKY/WX    TMP DP  RH WIND       PRES   REMARKS
ALTON          PTSUNNY   50  39  66 S12       30.14F
CAHOKIA*       LGT RAIN  50  40  68 VRB3      30.14F
$$

ILZ064>066-069>071-074>076-080>082-084>086-088>090-092>094-301700-
SOUTH-CENTRAL ILLINOIS

CITY           SKY/WX    TMP DP  RH WIND       PRES   REMARKS
CARBONDALE     SUNNY     55  39  54 VRB7      30.16F
MT. VERNON     CLOUDY    54  39  58 SE7       30.16F
$$

ILZ067-068-072-073-078-083-087-091-301700-
SOUTHEAST ILLINOIS

CITY           SKY/WX    TMP DP  RH WIND       PRES   REMARKS
LAWRENCEVILLE  SUNNY     50  31  48 E3        30.17F
$$

ABBREVIATIONS USED IN REMARKS
   TC - TEMPERATURE IN CELSIUS
  WCI - WIND CHILL INDEX
   HX - HEAT INDEX
  VSB - VISIBILITY
$$




USA.gov is the U.S. government's official web portal to all federal, state and local government web resources and services.